Rechercher aéroport 
image banner adimage banner ad
image banner ad

DAUZ - Zarzaitine / In Amenas

Situé à Zarzaitine, Algeria

ICAO - DAUZ, IATA - IAM

Données fournies par Airmate  

Information générale

Coordonnées: N28°3'5" E9°38'34"
Élévation : 1843 feet MSL.
 
Voir autres Aéroports à Illizi Province

Données opérationnelles

Accessible au public
Heure actuelle UTC:
Heure actuelle locale:
Météo
METAR: DAUZ 291000Z 11017KT 8000 NSC 23/05 Q1024
TAF: TAF DAUZ 290500Z 2906/3006 06008KT CAVOK BECMG 2908/2911 13012KT PROB30 TEMPO 2909/2911 13022KT 4000 DRSA
Voir NOTAMs / SUP AIP / TFR affectant cet aéroport [VIEW]
Fréquences de communication: [VIEW]

Pistes:

Identifiant RWYQFULongueur (ft)Largeur (ft)SurfaceLDA (ft)
0547°9843148ASP
23227°9843148
14145°721898
32325°721898

Coordonnées de l'aéroport

Adresse: Zarzaitine Algeria

Vue satellite de DAUZ